Location: Bu�n Treun
(12.1333°N, 108.3167°E)
Time: 22:55:34
(UTC+00:00)

Cosmos 2279 Rocket - Pass Details

Date: 13 July 2020
Orbit: 963 x 980 km, 82.9° (Epoch: 03 August)

Event Time Altitude Azimuth Distance (km) Brightness Sun altitude
Exits shadow 21:06:42 - 180° (S) 3,469 6.6 -19.1°
Reaches altitude 10° 21:08:42 10° 179° (S) 2,714 6.1 -18.7°
Maximum altitude 21:14:54 78° 93° (E) 992 4.1 -17.4°
Drops below altitude 10° 21:21:06 10° 7° (N) 2,703 6.8 -16.0°
Sets 21:23:35 0° 6° (N) 3,648 7.5 -15.5°
